Location: Buchloe
(48.0161°N, 10.7316°E)
Time: 17:58:38
(UTC+02:00)

ISS - Pass Details

Date: 20 May 2018
Orbit: 402 x 407 km, 51.6° (Epoch: 23 May)

Event Time Altitude Azimuth Distance (km) Brightness Sun altitude
Rises 03:12:11 0° 290° (WNW) 2,319 -0.1 -17.0°
Reaches altitude 10° 03:14:18 10° 295° (WNW) 1,458 -1.1 -16.9°
Maximum altitude 03:17:31 58° 15° (NNE) 477 -3.2 -16.6°
Drops below altitude 10° 03:20:45 10° 96° (E) 1,454 -0.7 -16.3°
Sets 03:22:50 0° 100° (E) 2,312 0.3 -16.1°
